| time (UTC) | temp F | wind direction | speed MPH | gust MPH | rain 1hr in | rain 24hr in | rain mn in | humidity % | barometer mb |
| 20260507112238 | 50 | 294 | 0.0 | 4.0 | 0.00 | 0.00 | 0.00 | ||
| 20260507111735 | 52 | 41 | 0.0 | 4.0 | 0.00 | 0.00 | 0.00 | ||
| 20260507111226 | 52 | 340 | 0.0 | 2.0 | 0.00 | 0.00 | 0.00 | ||
| 20260507110721 | 52 | 311 | 1.0 | 3.0 | 0.00 | 0.00 | 0.00 | ||
| 20260507110216 | 52 | 326 | 0.0 | 2.0 | 0.00 | 0.00 | 0.00 | ||
| 20260507105711 | 53 | 342 | 0.0 | 2.0 | 0.00 | 0.00 | 0.00 | ||
| 20260507105206 | 52 | 346 | 0.0 | 4.0 | 0.00 | 0.00 | 0.00 | ||
| 20260507104701 | 51 | 256 | 3.0 | 2.0 | 0.00 | 0.00 | 0.00 | ||
| 20260507104153 | 52 | 18 | 0.0 | 0.0 | 0.00 | 0.00 | 0.00 | ||
| 20260507103648 | 52 | 18 | 0.0 | 0.0 | 0.00 | 0.00 | 0.00 | ||
| 20260507103144 | 53 | 18 | 0.0 | 2.0 | 0.00 | 0.00 | 0.00 | ||
| 20260507102639 | 52 | 253 | 0.0 | 0.0 | 0.00 | 0.00 | 0.00 | ||
| 20260507102134 | 53 | 253 | 0.0 | 2.0 | 0.00 | 0.00 | 0.00 | ||
| 20260507101629 | 52 | 253 | 0.0 | 0.0 | 0.00 | 0.00 | 0.00 | ||
| 20260507101121 | 52 | 342 | 0.0 | 0.0 | 0.00 | 0.00 | 0.00 | ||
| 20260507100616 | 53 | 342 | 0.0 | 0.0 | 0.00 | 0.00 | 0.00 | ||
| 20260507095606 | 52 | 342 | 0.0 | 1.0 | 0.00 | 0.00 | 0.00 | ||
| 20260507095101 | 52 | 342 | 0.0 | 2.0 | 0.00 | 0.00 | 0.00 | ||
| 20260507094555 | 52 | 42 | 0.0 | 1.0 | 0.00 | 0.00 | 0.00 | ||
| 20260507094047 | 52 | 274 | 0.0 | 2.0 | 0.00 | 0.00 | 0.00 | ||
| 20260507093542 | 52 | 214 | 0.0 | 5.0 | 0.00 | 0.00 | 0.00 | ||
| 20260507093037 | 53 | 28 | 0.0 | 5.0 | 0.00 | 0.00 | 0.00 | ||
| 20260507092532 | 54 | 356 | 0.0 | 5.0 | 0.00 | 0.00 | 0.00 | ||
| 20260507092027 | 53 | 349 | 1.0 | 6.0 | 0.00 | 0.00 | 0.00 | ||
| 20260507091522 | 54 | 326 | 0.0 | 5.0 | 0.00 | 0.00 | 0.00 | ||
| 20260507091015 | 53 | 309 | 0.0 | 5.0 | 0.00 | 0.00 | 0.00 | ||
| 20260507090510 | 53 | 308 | 0.0 | 1.0 | 0.00 | 0.00 | 0.00 | ||
| 20260507090006 | 52 | 353 | 0.0 | 2.0 | 0.00 | 0.00 | 0.00 | ||
| 20260507085500 | 53 | 307 | 0.0 | 3.0 | 0.00 | 0.00 | 0.00 | ||
| 20260507084955 | 53 | 75 | 0.0 | 0.0 | 0.00 | 0.00 | 0.00 | ||
| 20260507084450 | 54 | 75 | 0.0 | 0.0 | 0.00 | 0.00 | 0.00 | ||
| 20260507083943 | 54 | 75 | 0.0 | 0.0 | 0.00 | 0.00 | 0.00 | ||
| 20260507083438 | 53 | 75 | 0.0 | 0.0 | 0.00 | 0.00 | 0.00 | ||
| 20260507082933 | 53 | 75 | 0.0 | 0.0 | 0.00 | 0.00 | 0.00 | ||
| 20260507082428 | 53 | 75 | 0.0 | 0.0 | 0.00 | 0.00 | 0.00 | ||
| 20260507081923 | 54 | 75 | 0.0 | 2.0 | 0.00 | 0.00 | 0.00 | ||
| 20260507081418 | 55 | 75 | 0.0 | 2.0 | 0.00 | 0.00 | 0.00 | ||
| 20260507080911 | 54 | 354 | 0.0 | 1.0 | 0.00 | 0.00 | 0.00 | ||
| 20260507080406 | 55 | 308 | 0.0 | 3.0 | 0.00 | 0.00 | 0.00 | ||
| 20260507075901 | 54 | 24 | 0.0 | 3.0 | 0.00 | 0.00 | 0.00 | ||
| 20260507075356 | 54 | 45 | 0.0 | 4.0 | 0.00 | 0.00 | 0.00 | ||
| 20260507074851 | 54 | 46 | 1.0 | 4.0 | 0.00 | 0.00 | 0.00 | ||
| 20260507074346 | 54 | 7 | 0.0 | 6.0 | 0.00 | 0.00 | 0.00 | ||
| 20260507073838 | 53 | 18 | 0.0 | 5.0 | 0.00 | 0.00 | 0.00 | ||
| 20260507073333 | 54 | 13 | 0.0 | 2.0 | 0.00 | 0.00 | 0.00 | ||
| 20260507072828 | 55 | 307 | 2.0 | 2.0 | 0.00 | 0.00 | 0.00 | ||
| 20260507072324 | 55 | 58 | 0.0 | 2.0 | 0.00 | 0.00 | 0.00 | ||
| 20260507071314 | 54 | 34 | 0.0 | 4.0 | 0.00 | 0.00 | 0.00 | ||
| 20260507070301 | 54 | 77 | 0.0 | 3.0 | 0.00 | 0.00 | 0.00 | ||
| 20260507065756 | 54 | 42 | 2.0 | 6.0 | 0.00 | 0.00 | 0.00 | ||
| 20260507065252 | 55 | 41 | 1.0 | 8.0 | 0.00 | 0.00 | 0.00 | ||
| 20260507064747 | 54 | 329 | 2.0 | 7.0 | 0.00 | 0.00 | 0.00 | ||
| 20260507064242 | 55 | 293 | 3.0 | 7.0 | 0.00 | 0.00 | 0.00 | ||
| 20260507063734 | 54 | 7 | 1.0 | 11.0 | 0.00 | 0.00 | 0.00 | ||
| 20260507062725 | 55 | 325 | 1.0 | 6.0 | 0.00 | 0.00 | 0.00 | ||
| 20260507062219 | 55 | 290 | 2.0 | 5.0 | 0.00 | 0.00 | 0.00 | ||
| 20260507061714 | 55 | 46 | 0.0 | 3.0 | 0.00 | 0.00 | 0.00 | ||
| 20260507061209 | 55 | 305 | 0.0 | 0.0 | 0.00 | 0.00 | 0.00 | ||
| 20260507060701 | 55 | 305 | 0.0 | 2.0 | 0.00 | 0.00 | 0.00 | ||
| 20260507060156 | 56 | 21 | 1.0 | 4.0 | 0.00 | 0.00 | 0.00 | ||
| 20260507055652 | 55 | 336 | 1.0 | 3.0 | 0.00 | 0.00 | 0.00 | ||
| 20260507055147 | 56 | 284 | 0.0 | 4.0 | 0.00 | 0.00 | 0.00 | ||
| 20260507054642 | 55 | 319 | 1.0 | 3.0 | 0.00 | 0.00 | 0.00 | ||
| 20260507054136 | 55 | 14 | 0.0 | 2.0 | 0.00 | 0.00 | 0.00 | ||
| 20260507053627 | 55 | 23 | 0.0 | 0.0 | 0.00 | 0.00 | 0.00 | ||
| 20260507053122 | 56 | 23 | 0.0 | 2.0 | 0.00 | 0.00 | 0.00 | ||
| 20260507052617 | 56 | 23 | 0.0 | 5.0 | 0.00 | 0.00 | 0.00 | ||
| 20260507052112 | 55 | 38 | 0.0 | 4.0 | 0.00 | 0.00 | 0.00 | ||
| 20260507051607 | 55 | 42 | 0.0 | 3.0 | 0.00 | 0.00 | 0.00 | ||
| 20260507051102 | 55 | 20 | 2.0 | 3.0 | 0.00 | 0.00 | 0.00 | ||
| 20260507050554 | 55 | 238 | 0.0 | 4.0 | 0.00 | 0.00 | 0.00 | ||
| 20260507050049 | 56 | 3 | 1.0 | 5.0 | 0.00 | 0.00 | 0.00 | ||
| 20260507045544 | 57 | 263 | 2.0 | 6.0 | 0.00 | 0.00 | 0.00 | ||
| 20260507045039 | 57 | 325 | 4.0 | 5.0 | 0.00 | 0.00 | 0.00 | ||
| 20260507044534 | 55 | 6 | 2.0 | 2.0 | 0.00 | 0.00 | 0.00 | ||
| 20260507044030 | 56 | 8 | 0.0 | 2.0 | 0.00 | 0.00 | 0.00 | ||
| 20260507043522 | 55 | 30 | 0.0 | 4.0 | 0.00 | 0.00 | 0.00 | ||
| 20260507043017 | 56 | 41 | 0.0 | 5.0 | 0.00 | 0.00 | 0.00 | ||
| 20260507042639 | 56 | 319 | 2.0 | 8.0 | 0.00 | 0.00 | 0.00 | ||
| 20260507042512 | 56 | 319 | 2.0 | 8.0 | 0.00 | 0.00 | 0.00 | ||
| 20260507042007 | 57 | 6 | 0.0 | 9.0 | 0.00 | 0.00 | 0.00 | ||
| 20260507041502 | 56 | 27 | 0.0 | 8.0 | 0.00 | 0.00 | 0.00 | ||
| 20260507040957 | 56 | 48 | 1.0 | 11.0 | 0.00 | 0.00 | 0.00 | ||
| 20260507040450 | 57 | 52 | 0.0 | 9.0 | 0.00 | 0.00 | 0.00 | ||
| 20260507035945 | 58 | 20 | 1.0 | 8.0 | 0.00 | 0.00 | 0.00 | ||
| 20260507035440 | 57 | 302 | 2.0 | 6.0 | 0.00 | 0.00 | 0.00 | ||
| 20260507034935 | 57 | 25 | 2.0 | 5.0 | 0.00 | 0.00 | 0.00 | ||
| 20260507034430 | 58 | 49 | 1.0 | 7.0 | 0.00 | 0.00 | 0.00 | ||
| 20260507033925 | 57 | 350 | 1.0 | 6.0 | 0.00 | 0.00 | 0.00 | ||
| 20260507033418 | 58 | 308 | 1.0 | 9.0 | 0.00 | 0.00 | 0.00 | ||
| 20260507032913 | 57 | 323 | 5.0 | 8.0 | 0.00 | 0.00 | 0.00 | ||
| 20260507032408 | 58 | 288 | 3.0 | 9.0 | 0.00 | 0.00 | 0.00 | ||
| 20260507031903 | 57 | 252 | 3.0 | 11.0 | 0.00 | 0.00 | 0.00 | ||
| 20260507031358 | 57 | 342 | 3.0 | 10.0 | 0.00 | 0.00 | 0.00 | ||
| 20260507030854 | 58 | 326 | 6.0 | 7.0 | 0.00 | 0.00 | 0.00 | ||
| 20260507030346 | 58 | 300 | 1.0 | 7.0 | 0.00 | 0.00 | 0.00 | ||
| 20260507025841 | 58 | 17 | 0.0 | 7.0 | 0.00 | 0.00 | 0.00 | ||
| 20260507025336 | 58 | 329 | 4.0 | 6.0 | 0.00 | 0.00 | 0.00 | ||
| 20260507024831 | 57 | 333 | 1.0 | 7.0 | 0.00 | 0.00 | 0.00 | ||
| 20260507024327 | 59 | 314 | 1.0 | 10.0 | 0.00 | 0.00 | 0.00 | ||
| 20260507023822 | 58 | 307 | 2.0 | 7.0 | 0.00 | 0.00 | 0.00 | ||
| 20260507023313 | 59 | 25 | 0.0 | 9.0 | 0.00 | 0.00 | 0.00 | ||
| 20260507022808 | 60 | 300 | 4.0 | 7.0 | 0.00 | 0.00 | 0.00 | ||
| 20260507022306 | 59 | 330 | 1.0 | 5.0 | 0.00 | 0.00 | 0.00 | ||
| 20260507021759 | 59 | 307 | 1.0 | 4.0 | 0.00 | 0.00 | 0.00 | ||
| 20260507021254 | 58 | 21 | 0.0 | 4.0 | 0.00 | 0.00 | 0.00 | ||
| 20260507020749 | 59 | 18 | 2.0 | 0.0 | 0.00 | 0.00 | 0.00 | ||
| 20260507020242 | 59 | 34 | 0.0 | 0.0 | 0.00 | 0.00 | 0.00 | ||
| 20260507015737 | 60 | 34 | 0.0 | 1.0 | 0.00 | 0.00 | 0.00 | ||
| 20260507015232 | 59 | 34 | 0.0 | 1.0 | 0.00 | 0.00 | 0.00 | ||
| 20260507014727 | 60 | 253 | 0.0 | 5.0 | 0.00 | 0.00 | 0.00 | ||
| 20260507014223 | 59 | 290 | 3.0 | 2.0 | 0.00 | 0.00 | 0.00 | ||
| 20260507013718 | 60 | 311 | 0.0 | 2.0 | 0.00 | 0.00 | 0.00 | ||
| 20260507013210 | 61 | 46 | 0.0 | 0.0 | 0.00 | 0.00 | 0.00 | ||
| 20260507012706 | 61 | 46 | 0.0 | 3.0 | 0.00 | 0.00 | 0.00 | ||
| 20260507012201 | 60 | 44 | 0.0 | 3.0 | 0.00 | 0.00 | 0.00 | ||
| 20260507011656 | 61 | 46 | 0.0 | 1.0 | 0.00 | 0.00 | 0.00 | ||
| 20260507011151 | 60 | 42 | 0.0 | 8.0 | 0.00 | 0.00 | 0.00 | ||
| 20260507010646 | 60 | 284 | 0.0 | 8.0 | 0.00 | 0.00 | 0.00 | ||
| 20260507010139 | 62 | 253 | 1.0 | 5.0 | 0.00 | 0.00 | 0.00 | ||
| 20260507005634 | 62 | 336 | 3.0 | 13.0 | 0.00 | 0.00 | 0.00 | ||
| 20260507005129 | 62 | 172 | 4.0 | 17.0 | 0.00 | 0.00 | 0.00 | ||
| 20260507004624 | 62 | 269 | 6.0 | 11.0 | 0.00 | 0.00 | 0.00 | ||
| 20260507004119 | 62 | 315 | 5.0 | 11.0 | 0.00 | 0.00 | 0.00 | ||
| 20260507003615 | 62 | 23 | 5.0 | 23.0 | 0.00 | 0.00 | 0.00 | ||
| 20260507003107 | 63 | 342 | 7.0 | 17.0 | 0.00 | 0.00 | 0.00 | ||
| 20260507002602 | 63 | 290 | 8.0 | 13.0 | 0.00 | 0.00 | 0.00 | ||
| 20260507002057 | 62 | 294 | 7.0 | 15.0 | 0.00 | 0.00 | 0.00 | ||
| 20260507001552 | 63 | 349 | 2.0 | 12.0 | 0.00 | 0.00 | 0.00 | ||
| 20260507001048 | 63 | 318 | 5.0 | 13.0 | 0.00 | 0.00 | 0.00 | ||
| 20260507000543 | 63 | 297 | 5.0 | 18.0 | 0.00 | 0.00 | 0.00 | ||
| 20260507000035 | 64 | 8 | 5.0 | 13.0 | 0.00 | 0.00 | 0.00 | ||
| 20260506235530 | 64 | 305 | 8.0 | 15.0 | 0.00 | 0.00 | 0.00 | ||
| 20260506235026 | 64 | 318 | 3.0 | 18.0 | 0.00 | 0.00 | 0.00 | ||
| 20260506234521 | 62 | 255 | 12.0 | 10.0 | 0.00 | 0.00 | 0.00 | ||
| 20260506234016 | 64 | 277 | 7.0 | 8.0 | 0.00 | 0.00 | 0.00 | ||
| 20260506233511 | 64 | 277 | 4.0 | 9.0 | 0.00 | 0.00 | 0.00 | ||
| 20260506233004 | 63 | 288 | 7.0 | 9.0 | 0.00 | 0.00 | 0.00 | ||
| 20260506232458 | 64 | 260 | 6.0 | 11.0 | 0.00 | 0.00 | 0.00 | ||
| 20260506231953 | 63 | 288 | 5.0 | 13.0 | 0.00 | 0.00 | 0.00 | ||
| 20260506231448 | 63 | 277 | 7.0 | 10.0 | 0.00 | 0.00 | 0.00 | ||
| 20260506230944 | 64 | 347 | 0.0 | 9.0 | 0.00 | 0.00 | 0.00 | ||
| 20260506230439 | 64 | 311 | 2.0 | 6.0 | 0.00 | 0.00 | 0.00 | ||
| 20260506225930 | 64 | 295 | 2.0 | 8.0 | 0.00 | 0.00 | 0.00 | ||
| 20260506225425 | 67 | 280 | 3.0 | 8.0 | 0.00 | 0.00 | 0.00 | ||
| 20260506224921 | 66 | 339 | 2.0 | 7.0 | 0.00 | 0.00 | 0.00 | ||
| 20260506224416 | 68 | 298 | 3.0 | 4.0 | 0.00 | 0.00 | 0.00 | ||
| 20260506223406 | 68 | 198 | 3.0 | 4.0 | 0.00 | 0.00 | 0.00 | ||
| 20260506222859 | 69 | 188 | 2.0 | 6.0 | 0.00 | 0.00 | 0.00 | ||
| 20260506222354 | 68 | 218 | 2.0 | 4.0 | 0.00 | 0.00 | 0.00 | ||
| 20260506221849 | 69 | 184 | 2.0 | 3.0 | 0.00 | 0.00 | 0.00 | ||
| 20260506221344 | 69 | 155 | 0.0 | 2.0 | 0.00 | 0.00 | 0.00 | ||
| 20260506220840 | 69 | 219 | 0.0 | 3.0 | 0.00 | 0.00 | 0.00 | ||
| 20260506220335 | 69 | 186 | 2.0 | 3.0 | 0.00 | 0.00 | 0.00 | ||
| 20260506215827 | 69 | 153 | 1.0 | 4.0 | 0.00 | 0.00 | 0.00 | ||
| 20260506215321 | 68 | 212 | 3.0 | 4.0 | 0.00 | 0.00 | 0.00 | ||
| 20260506214815 | 67 | 194 | 3.0 | 4.0 | 0.00 | 0.00 | 0.00 | ||
| 20260506214310 | 67 | 240 | 3.0 | 5.0 | 0.00 | 0.00 | 0.00 | ||
| 20260506213806 | 68 | 198 | 2.0 | 5.0 | 0.00 | 0.00 | 0.00 | ||
| 20260506213301 | 68 | 215 | 3.0 | 4.0 | 0.00 | 0.00 | 0.00 | ||
| 20260506212753 | 68 | 214 | 3.0 | 5.0 | 0.00 | 0.00 | 0.00 | ||
| 20260506212248 | 69 | 190 | 2.0 | 4.0 | 0.00 | 0.00 | 0.00 | ||
| 20260506211743 | 68 | 139 | 2.0 | 4.0 | 0.00 | 0.00 | 0.00 | ||
| 20260506211239 | 67 | 153 | 2.0 | 4.0 | 0.00 | 0.00 | 0.00 | ||
| 20260506210733 | 66 | 143 | 2.0 | 4.0 | 0.00 | 0.00 | 0.00 | ||
| 20260506210228 | 65 | 169 | 2.0 | 6.0 | 0.00 | 0.00 | 0.00 | ||
| 20260506205719 | 65 | 142 | 6.0 | 4.0 | 0.00 | 0.00 | 0.00 | ||
| 20260506205214 | 66 | 176 | 0.0 | 0.0 | 0.00 | 0.00 | 0.00 | ||
| 20260506204710 | 66 | 176 | 0.0 | 0.0 | 0.00 | 0.00 | 0.00 | ||
| 20260506204204 | 66 | 176 | 0.0 | 0.0 | 0.00 | 0.00 | 0.00 | ||
| 20260506203658 | 66 | 176 | 0.0 | 3.0 | 0.00 | 0.00 | 0.00 | ||
| 20260506203153 | 66 | 195 | 2.0 | 3.0 | 0.00 | 0.00 | 0.00 | ||
| 20260506202645 | 66 | 138 | 0.0 | 2.0 | 0.00 | 0.00 | 0.00 | ||
| 20260506202140 | 67 | 155 | 0.0 | 2.0 | 0.00 | 0.00 | 0.00 | ||
| 20260506201636 | 66 | 193 | 2.0 | 4.0 | 0.00 | 0.00 | 0.00 | ||
| 20260506201131 | 67 | 148 | 2.0 | 6.0 | 0.00 | 0.00 | 0.00 | ||
| 20260506200626 | 65 | 153 | 3.0 | 5.0 | 0.00 | 0.00 | 0.00 | ||
| 20260506200121 | 66 | 131 | 4.0 | 8.0 | 0.00 | 0.00 | 0.00 | ||
| 20260506195614 | 67 | 153 | 4.0 | 8.0 | 0.00 | 0.00 | 0.00 | ||
| 20260506195108 | 68 | 148 | 7.0 | 6.0 | 0.00 | 0.00 | 0.00 | ||
| 20260506194603 | 68 | 170 | 5.0 | 7.0 | 0.00 | 0.00 | 0.00 | ||
| 20260506194058 | 68 | 173 | 5.0 | 7.0 | 0.00 | 0.00 | 0.00 | ||
| 20260506193049 | 67 | 105 | 6.0 | 9.0 | 0.00 | 0.00 | 0.00 | ||
| 20260506192541 | 68 | 177 | 7.0 | 9.0 | 0.00 | 0.00 | 0.00 | ||
| 20260506192036 | 68 | 179 | 4.0 | 10.0 | 0.00 | 0.00 | 0.00 | ||
| 20260506191532 | 69 | 141 | 9.0 | 11.0 | 0.00 | 0.00 | 0.00 | ||
| 20260506191027 | 69 | 186 | 5.0 | 12.0 | 0.00 | 0.00 | 0.00 | ||
| 20260506190522 | 70 | 139 | 4.0 | 9.0 | 0.00 | 0.00 | 0.00 | ||
| 20260506190018 | 70 | 181 | 6.0 | 10.0 | 0.00 | 0.00 | 0.00 | ||
| 20260506185510 | 69 | 156 | 9.0 | 10.0 | 0.00 | 0.00 | 0.00 | ||
| 20260506184500 | 69 | 176 | 5.0 | 8.0 | 0.00 | 0.00 | 0.00 | ||
| 20260506183955 | 69 | 166 | 6.0 | 10.0 | 0.00 | 0.00 | 0.00 | ||
| 20260506183450 | 67 | 208 | 6.0 | 9.0 | 0.00 | 0.00 | 0.00 | ||
| 20260506182946 | 67 | 186 | 3.0 | 11.0 | 0.00 | 0.00 | 0.00 | ||
| 20260506182438 | 67 | 174 | 7.0 | 10.0 | 0.00 | 0.00 | 0.00 | ||
| 20260506181933 | 67 | 165 | 7.0 | 10.0 | 0.00 | 0.00 | 0.00 | ||
| 20260506181428 | 66 | 215 | 6.0 | 11.0 | 0.00 | 0.00 | 0.00 | ||
| 20260506180922 | 66 | 198 | 6.0 | 11.0 | 0.00 | 0.00 | 0.00 | ||
| 20260506180417 | 67 | 205 | 5.0 | 9.0 | 0.00 | 0.00 | 0.00 | ||
| 20260506175912 | 66 | 173 | 6.0 | 10.0 | 0.00 | 0.00 | 0.00 | ||
| 20260506175404 | 66 | 158 | 6.0 | 10.0 | 0.00 | 0.00 | 0.00 | ||
| 20260506174858 | 66 | 188 | 7.0 | 11.0 | 0.00 | 0.00 | 0.00 | ||
| 20260506174354 | 66 | 172 | 4.0 | 11.0 | 0.00 | 0.00 | 0.00 | ||
| 20260506173849 | 65 | 195 | 5.0 | 13.0 | 0.00 | 0.00 | 0.00 | ||
| 20260506173344 | 66 | 187 | 6.0 | 11.0 | 0.00 | 0.00 | 0.00 | ||
| 20260506172840 | 66 | 179 | 6.0 | 10.0 | 0.00 | 0.00 | 0.00 | ||
| 20260506172332 | 66 | 172 | 6.0 | 13.0 | 0.00 | 0.00 | 0.00 | ||
| 20260506171827 | 68 | 158 | 7.0 | 15.0 | 0.00 | 0.00 | 0.00 | ||
| 20260506171323 | 68 | 148 | 8.0 | 15.0 | 0.00 | 0.00 | 0.00 | ||
| 20260506170818 | 67 | 169 | 10.0 | 17.0 | 0.00 | 0.00 | 0.00 | ||
| 20260506170313 | 66 | 191 | 8.0 | 16.0 | 0.00 | 0.00 | 0.00 | ||
| 20260506165809 | 67 | 173 | 7.0 | 16.0 | 0.00 | 0.00 | 0.00 | ||
| 20260506165301 | 67 | 174 | 9.0 | 14.0 | 0.00 | 0.00 | 0.00 | ||
| 20260506164756 | 67 | 174 | 9.0 | 17.0 | 0.00 | 0.00 | 0.00 | ||
| 20260506164252 | 66 | 163 | 13.0 | 14.0 | 0.00 | 0.00 | 0.00 | ||
| 20260506163747 | 67 | 197 | 6.0 | 13.0 | 0.00 | 0.00 | 0.00 | ||
| 20260506163242 | 65 | 170 | 8.0 | 11.0 | 0.00 | 0.00 | 0.00 | ||
| 20260506162737 | 65 | 145 | 4.0 | 11.0 | 0.00 | 0.00 | 0.00 | ||
| 20260506162229 | 65 | 132 | 5.0 | 11.0 | 0.00 | 0.00 | 0.00 | ||
| 20260506161220 | 63 | 163 | 9.0 | 16.0 | 0.00 | 0.00 | 0.00 | ||
| 20260506160715 | 64 | 186 | 8.0 | 12.0 | 0.00 | 0.00 | 0.00 | ||
| 20260506160210 | 62 | 180 | 6.0 | 12.0 | 0.00 | 0.00 | 0.00 | ||
| 20260506155704 | 63 | 114 | 4.0 | 12.0 | 0.00 | 0.00 | 0.00 | ||
| 20260506155156 | 62 | 174 | 7.0 | 13.0 | 0.00 | 0.00 | 0.00 | ||
| 20260506154650 | 61 | 191 | 9.0 | 14.0 | 0.00 | 0.00 | 0.00 | ||
| 20260506154145 | 62 | 169 | 12.0 | 13.0 | 0.00 | 0.00 | 0.00 | ||
| 20260506153641 | 61 | 200 | 9.0 | 15.0 | 0.00 | 0.00 | 0.00 | ||
| 20260506153136 | 62 | 177 | 7.0 | 14.0 | 0.00 | 0.00 | 0.00 | ||
| 20260506152631 | 61 | 162 | 12.0 | 19.0 | 0.00 | 0.00 | 0.00 | ||
| 20260506152123 | 61 | 90 | 9.0 | 16.0 | 0.00 | 0.00 | 0.00 | ||
| 20260506151619 | 62 | 59 | 4.0 | 17.0 | 0.00 | 0.00 | 0.00 | ||
| 20260506151114 | 62 | 117 | 14.0 | 15.0 | 0.00 | 0.00 | 0.00 | ||
| 20260506150609 | 60 | 136 | 10.0 | 20.0 | 0.00 | 0.00 | 0.00 | ||
| 20260506150104 | 62 | 173 | 9.0 | 20.0 | 0.00 | 0.00 | 0.00 | ||
| 20260506145559 | 60 | 173 | 9.0 | 15.0 | 0.00 | 0.00 | 0.00 | ||
| 20260506144546 | 60 | 158 | 8.0 | 15.0 | 0.00 | 0.00 | 0.00 | ||
| 20260506144041 | 61 | 141 | 9.0 | 15.0 | 0.00 | 0.00 | 0.00 | ||
| 20260506143536 | 60 | 146 | 8.0 | 13.0 | 0.00 | 0.00 | 0.00 | ||
| 20260506143032 | 60 | 174 | 8.0 | 12.0 | 0.00 | 0.00 | 0.00 | ||
| 20260506142527 | 61 | 155 | 8.0 | 13.0 | 0.00 | 0.00 | 0.00 | ||
| 20260506142019 | 60 | 131 | 9.0 | 14.0 | 0.00 | 0.00 | 0.00 | ||
| 20260506141514 | 60 | 145 | 7.0 | 11.0 | 0.00 | 0.00 | 0.00 | ||
| 20260506141009 | 60 | 176 | 7.0 | 18.0 | 0.00 | 0.00 | 0.00 | ||
| 20260506140504 | 60 | 184 | 7.0 | 12.0 | 0.00 | 0.00 | 0.00 | ||
| 20260506135959 | 59 | 167 | 5.0 | 16.0 | 0.00 | 0.00 | 0.00 | ||
| 20260506135455 | 60 | 177 | 10.0 | 15.0 | 0.00 | 0.00 | 0.00 | ||
| 20260506134947 | 61 | 159 | 7.0 | 11.0 | 0.00 | 0.00 | 0.00 | ||
| 20260506134442 | 61 | 156 | 8.0 | 12.0 | 0.00 | 0.00 | 0.00 | ||
| 20260506133432 | 60 | 146 | 5.0 | 12.0 | 0.00 | 0.00 | 0.00 | ||
| 20260506132928 | 60 | 158 | 11.0 | 12.0 | 0.00 | 0.00 | 0.00 | ||
| 20260506132423 | 60 | 160 | 9.0 | 12.0 | 0.00 | 0.00 | 0.00 | ||
| 20260506131915 | 59 | 135 | 9.0 | 13.0 | 0.00 | 0.00 | 0.00 | ||
| 20260506131410 | 60 | 162 | 6.0 | 11.0 | 0.00 | 0.00 | 0.00 | ||
| 20260506130906 | 60 | 174 | 6.0 | 10.0 | 0.00 | 0.00 | 0.00 | ||
| 20260506130401 | 61 | 167 | 6.0 | 9.0 | 0.00 | 0.00 | 0.00 | ||
| 20260506125856 | 60 | 176 | 7.0 | 10.0 | 0.00 | 0.00 | 0.00 | ||
| 20260506125351 | 60 | 132 | 9.0 | 8.0 | 0.00 | 0.00 | 0.00 | ||
| 20260506124843 | 60 | 170 | 4.0 | 8.0 | 0.00 | 0.00 | 0.00 | ||
| 20260506124338 | 60 | 190 | 5.0 | 8.0 | 0.00 | 0.00 | 0.00 | ||
| 20260506123834 | 61 | 217 | 5.0 | 7.0 | 0.00 | 0.00 | 0.00 | ||
| 20260506123329 | 60 | 163 | 4.0 | 8.0 | 0.00 | 0.00 | 0.00 | ||
| 20260506122824 | 59 | 145 | 3.0 | 6.0 | 0.00 | 0.00 | 0.00 | ||
| 20260506122319 | 60 | 132 | 3.0 | 5.0 | 0.00 | 0.00 | 0.00 | ||
| 20260506121812 | 60 | 127 | 3.0 | 6.0 | 0.00 | 0.00 | 0.00 | ||
| 20260506121307 | 60 | 173 | 5.0 | 7.0 | 0.00 | 0.00 | 0.00 | ||
| 20260506120802 | 60 | 132 | 4.0 | 11.0 | 0.00 | 0.00 | 0.00 | ||
| 20260506120257 | 59 | 167 | 5.0 | 8.0 | 0.00 | 0.00 | 0.00 | ||
| 20260506115753 | 61 | 174 | 4.0 | 10.0 | 0.00 | 0.00 | 0.00 | ||
| 20260506115248 | 61 | 167 | 7.0 | 8.0 | 0.00 | 0.00 | 0.00 | ||
| 20260506114740 | 60 | 180 | 4.0 | 10.0 | 0.00 | 0.00 | 0.00 | ||
| 20260506114235 | 62 | 160 | 5.0 | 9.0 | 0.00 | 0.00 | 0.00 | ||
| 20260506113730 | 61 | 158 | 5.0 | 9.0 | 0.00 | 0.00 | 0.00 | ||
| 20260506113226 | 61 | 191 | 6.0 | 10.0 | 0.00 | 0.00 | 0.00 | ||
| 20260506112720 | 62 | 170 | 5.0 | 10.0 | 0.00 | 0.00 | 0.00 |